Home > Time Zones > World Clock > Weather > Germany > Ulm > Past weeks

Flag for Germany Weather past 2 weeks in Ulm, Baden-Württemberg, Germany

Now
68 °F

Scattered clouds.


Feels Like: 68 °F
Forecast: 50 / 70 °F
Wind: 10 mph from West

Location: Laupheim Airport

Current Time: May 28, 2015 at 5:21:31 PM

Latest Report: May 28, 2015 at 4:20 PM


Visibility: N/A

Pressure: 30.01 "Hg

Humidity: 43%

Dew point: 45 °F

Location of UlmLocation

Historic Weather in Ulm — Graph

°F

Ulm temperature yesterday

Maximum temperature yesterday: 55 °F (at 2:20 PM)
Minimum temperature yesterday: 43 °F (at 4:20 AM)
Average temperature yesterday: 50 °F

Past Weeks' High & Low Weather Summary

 TemperatureHumidityPressure
High73 °F (May 13, 5:00 PM)100% (May 15, 7:20 AM)30.30 "Hg (May 15, 7:20 AM)
Low39 °F (May 22, 4:20 AM)40% (May 28, 2:20 PM)29.77 "Hg (May 18, 5:20 PM)
Average54 °F77%30.05 "Hg
* Reported May 13 3:20 PM — May 28 3:20 PM, Ulm, Weather by CustomWeather, © 2015

Note: Actual official high and low records may vary slightly from our data, if they occured in-between our weather recording intervals... More about our weather records

Advertising

Ulm weather history for previous 24 hours

 ConditionsComfort  
Time TempWeatherWind HumidityBarometerVisibility
3:20 PM
Thu, May 28
66 °FPartly sunny.12 mph40%30.01 "HgN/A
2:20 PM64 °FPartly sunny.14 mph40%30.04 "HgN/A
1:20 PM63 °FPartly sunny.10 mph49%30.07 "HgN/A
12:20 PM61 °FPartly sunny.9 mph55%30.07 "HgN/A
11:20 AM59 °FPartly sunny.8 mph55%30.09 "HgN/A
10:20 AM55 °FPartly sunny.5 mph72%30.09 "HgN/A
9:20 AM50 °FPartly sunny.5 mph82%30.09 "HgN/A
8:20 AM46 °FPartly sunny.3 mph87%30.12 "Hg5 mi
7:20 AM41 °FPartly sunny.3 mph100%30.09 "Hg5 mi
6:20 AM39 °FPassing clouds.3 mph100%30.12 "Hg5 mi
5:20 AM39 °FFog.1 mph100%30.09 "Hg5 mi
4:20 AM41 °FFog.No wind93%30.12 "HgN/A
3:20 AM41 °FPassing clouds.3 mph93%30.12 "HgN/A
2:20 AM43 °FPassing clouds.2 mph93%30.12 "HgN/A
1:20 AM43 °FPassing clouds.No wind93%30.15 "HgN/A
12:20 AM45 °FPassing clouds.No wind87%30.18 "HgN/A
11:20 PM
Wed, May 27
48 °FPassing clouds.2 mph76%30.18 "HgN/A
10:20 PM50 °FPassing clouds.5 mph71%30.18 "HgN/A
9:20 PM50 °FScattered clouds.5 mph71%30.18 "HgN/A
8:20 PM54 °FPartly sunny.3 mph67%30.18 "HgN/A
7:20 PM55 °FScattered clouds.3 mph55%30.18 "HgN/A
6:20 PM55 °FPartly sunny.2 mph55%30.18 "HgN/A
5:20 PM55 °FPartly sunny.3 mph51%30.18 "HgN/A
Weather by CustomWeather, © 2015

See weather overviewHow to use our weather pages